• In Hungary
  • List of Countries
  • For 7 days
  • Water Temperature
  • Satellite Maps
  • Weather Map
  • News
  • Weather Widgets
  • user-avatar
    Login

    Hourly Weather Salala

    Today, 16 January, Tuesday

    Time Temperature Precipitation Wind Pressure Humidity
    00:00 +21°C° 0 mm 1 mps 760 mmHg 36%
    01:00 +21°C° 0 mm 1 mps 760 mmHg 35%
    02:00 +21°C° 0 mm 1 mps 760 mmHg 34%
    03:00 +20°C° 0 mm 1 mps 759 mmHg 33%
    04:00 +20°C° 0 mm 1 mps 759 mmHg 27%
    05:00 +20°C° 0 mm 1 mps 760 mmHg 27%
    06:00 +20°C° 0 mm 1 mps 760 mmHg 27%
    07:00 +19°C° 0 mm 2 mps 760 mmHg 28%
    08:00 +21°C° 0 mm 2 mps 760 mmHg 26%
    09:00 +25°C° 0 mm 2 mps 760 mmHg 25%
    10:00 +27°C° 0 mm 2 mps 761 mmHg 22%
    11:00 +28°C° 0 mm 2 mps 761 mmHg 21%
    12:00 +29°C° 0 mm 3 mps 760 mmHg 21%
    13:00 +30°C° 0 mm 3 mps 759 mmHg 21%
    14:00 +30°C° 0 mm 3 mps 759 mmHg 21%
    15:00 +30°C° 0 mm 3 mps 759 mmHg 21%
    16:00 +30°C° 0 mm 3 mps 758 mmHg 21%
    17:00 +28°C° 0 mm 3 mps 758 mmHg 23%
    18:00 +27°C° 0 mm 2 mps 758 mmHg 26%
    19:00 +25°C° 0 mm 2 mps 758 mmHg 29%
    20:00 +24°C° 0 mm 2 mps 759 mmHg 27%
    21:00 +24°C° 0 mm 2 mps 759 mmHg 25%
    22:00 +23°C° 0 mm 2 mps 759 mmHg 23%
    23:00 +23°C° 0 mm 2 mps 759 mmHg 21%

    Tomorrow, 17 January, Wednesday

    Time Temperature Precipitation Wind Pressure Humidity
    00:00 +21°C° 0 mm 2 mps 759 mmHg 19%
    01:00 +21°C° 0 mm 2 mps 759 mmHg 18%
    02:00 +21°C° 0 mm 2 mps 759 mmHg 19%
    03:00 +20°C° 0 mm 3 mps 759 mmHg 20%
    04:00 +20°C° 0 mm 3 mps 758 mmHg 22%
    05:00 +20°C° 0 mm 3 mps 759 mmHg 23%
    06:00 +19°C° 0 mm 4 mps 759 mmHg 24%
    07:00 +19°C° 0 mm 4 mps 759 mmHg 25%
    08:00 +21°C° 0 mm 4 mps 760 mmHg 25%
    09:00 +22°C° 0 mm 4 mps 760 mmHg 25%
    10:00 +25°C° 0 mm 4 mps 760 mmHg 25%
    11:00 +26°C° 0 mm 4 mps 759 mmHg 25%
    12:00 +27°C° 0 mm 3 mps 759 mmHg 25%
    13:00 +28°C° 0 mm 3 mps 758 mmHg 25%
    14:00 +28°C° 0 mm 3 mps 758 mmHg 26%
    15:00 +29°C° 0 mm 3 mps 757 mmHg 26%
    16:00 +29°C° 0 mm 3 mps 757 mmHg 27%
    17:00 +27°C° 0 mm 3 mps 757 mmHg 32%
    18:00 +26°C° 0 mm 3 mps 757 mmHg 37%
    19:00 +25°C° 0 mm 2 mps 758 mmHg 42%
    20:00 +24°C° 0 mm 2 mps 758 mmHg 42%
    21:00 +23°C° 0 mm 2 mps 758 mmHg 43%
    22:00 +23°C° 0 mm 1 mps 759 mmHg 43%
    23:00 +22°C° 0 mm 1 mps 759 mmHg 43%

    Day after tomorrow, 18 January, Thursday

    Time Temperature Precipitation Wind Pressure Humidity
    00:00 +22°C° 0 mm 1 mps 759 mmHg 43%
    01:00 +22°C° 0 mm 1 mps 759 mmHg 43%
    02:00 +21°C° 0 mm 1 mps 758 mmHg 43%
    03:00 +21°C° 0 mm 1 mps 758 mmHg 43%
    04:00 +19°C° 0 mm 2 mps 758 mmHg 43%
    05:00 +19°C° 0 mm 2 mps 758 mmHg 43%
    06:00 +19°C° 0 mm 2 mps 759 mmHg 44%
    07:00 +19°C° 0 mm 2 mps 759 mmHg 44%
    08:00 +21°C° 0 mm 2 mps 759 mmHg 40%
    09:00 +24°C° 0 mm 2 mps 760 mmHg 35%
    10:00 +26°C° 0 mm 2 mps 760 mmHg 30%
    11:00 +27°C° 0 mm 2 mps 760 mmHg 29%
    12:00 +28°C° 0 mm 2 mps 759 mmHg 27%
    13:00 +29°C° 0 mm 3 mps 759 mmHg 25%
    14:00 +29°C° 0 mm 3 mps 758 mmHg 26%
    15:00 +29°C° 0 mm 3 mps 758 mmHg 28%
    16:00 +29°C° 0 mm 4 mps 757 mmHg 29%
    17:00 +27°C° 0 mm 3 mps 758 mmHg 32%
    18:00 +26°C° 0 mm 3 mps 758 mmHg 36%
    19:00 +25°C° 0 mm 3 mps 759 mmHg 39%
    20:00 +24°C° 0 mm 2 mps 759 mmHg 42%
    21:00 +23°C° 0 mm 2 mps 759 mmHg 44%
    22:00 +23°C° 0 mm 1 mps 760 mmHg 46%
    23:00 +22°C° 0 mm 1 mps 759 mmHg 48%

    19 January, Friday

    Time Temperature Precipitation Wind Pressure Humidity
    00:00 +22°C° 0 mm 1 mps 759 mmHg 50%
    01:00 +21°C° 0 mm 1 mps 759 mmHg 52%
    02:00 +21°C° 0 mm 1 mps 759 mmHg 54%
    03:00 +20°C° 0 mm 1 mps 759 mmHg 56%
    04:00 +20°C° 0 mm 1 mps 758 mmHg 57%
    05:00 +20°C° 0 mm 1 mps 759 mmHg 58%
    06:00 +19°C° 0 mm 1 mps 759 mmHg 58%
    07:00 +19°C° 0 mm 1 mps 759 mmHg 59%
    08:00 +22°C° 0 mm 1 mps 760 mmHg 50%
    09:00 +24°C° 0 mm 2 mps 760 mmHg 41%
    10:00 +26°C° 0 mm 2 mps 760 mmHg 33%
    11:00 +27°C° 0 mm 2 mps 760 mmHg 30%
    12:00 +28°C° 0 mm 3 mps 759 mmHg 28%
    13:00 +29°C° 0 mm 3 mps 759 mmHg 25%
    14:00 +29°C° 0 mm 3 mps 758 mmHg 26%
    15:00 +29°C° 0 mm 3 mps 758 mmHg 28%
    16:00 +29°C° 0 mm 3 mps 757 mmHg 29%
    17:00 +28°C° 0 mm 3 mps 758 mmHg 35%
    18:00 +26°C° 0 mm 3 mps 758 mmHg 40%
    19:00 +25°C° 0 mm 3 mps 759 mmHg 46%
    20:00 +24°C° 0 mm 3 mps 759 mmHg 49%
    21:00 +23°C° 0 mm 2 mps 760 mmHg 53%
    22:00 +23°C° 0 mm 2 mps 760 mmHg 57%
    23:00 +23°C° 0 mm 2 mps 760 mmHg 60%

    20 January, Saturday

    Time Temperature Precipitation Wind Pressure Humidity
    00:00 +21°C° 0 mm 2 mps 760 mmHg 62%
    01:00 +21°C° 0 mm 2 mps 760 mmHg 65%
    02:00 +20°C° 0 mm 2 mps 759 mmHg 67%
    03:00 +20°C° 0 mm 2 mps 759 mmHg 70%
    04:00 +20°C° 0 mm 2 mps 759 mmHg 72%
    05:00 +20°C° 0 mm 2 mps 759 mmHg 73%
    06:00 +20°C° 0 mm 2 mps 760 mmHg 73%
    07:00 +19°C° 0 mm 2 mps 760 mmHg 74%
    08:00 +21°C° 0 mm 2 mps 760 mmHg 66%
    09:00 +25°C° 0 mm 2 mps 760 mmHg 57%
    10:00 +27°C° 0 mm 2 mps 761 mmHg 49%
    11:00 +28°C° 0 mm 2 mps 760 mmHg 46%
    12:00 +29°C° 0 mm 2 mps 760 mmHg 43%
    13:00 +30°C° 0 mm 2 mps 759 mmHg 40%
    14:00 +30°C° 0 mm 3 mps 759 mmHg 42%
    15:00 +30°C° 0 mm 3 mps 758 mmHg 45%
    16:00 +29°C° 0 mm 3 mps 758 mmHg 47%
    17:00 +28°C° 0 mm 3 mps 758 mmHg 55%
    18:00 +27°C° 0 mm 3 mps 759 mmHg 63%
    19:00 +25°C° 0 mm 2 mps 759 mmHg 70%
    20:00 +25°C° 0 mm 2 mps 759 mmHg 74%
    21:00 +25°C° 0 mm 2 mps 760 mmHg 78%
    22:00 +24°C° 0 mm 2 mps 760 mmHg 83%
    23:00 +24°C° 0 mm 1 mps 760 mmHg 85%

    21 January, Sunday

    Time Temperature Precipitation Wind Pressure Humidity
    00:00 +23°C° 0 mm 1 mps 759 mmHg 87%
    01:00 +23°C° 0 mm 1 mps 759 mmHg 89%
    02:00 +22°C° 0 mm 1 mps 759 mmHg 89%
    03:00 +22°C° 0 mm 1 mps 759 mmHg 88%
    04:00 +22°C° 0 mm 1 mps 759 mmHg 88%
    05:00 +22°C° 0 mm 1 mps 759 mmHg 86%
    06:00 +21°C° 0 mm 1 mps 759 mmHg 84%
    07:00 +21°C° 0 mm 1 mps 760 mmHg 82%
    08:00 +23°C° 0 mm 1 mps 760 mmHg 71%
    09:00 +25°C° 0 mm 1 mps 761 mmHg 60%
    10:00 +28°C° 0 mm 2 mps 761 mmHg 49%
    11:00 +29°C° 0 mm 2 mps 760 mmHg 44%
    12:00 +30°C° 0 mm 3 mps 760 mmHg 40%
    13:00 +31°C° 0 mm 3 mps 759 mmHg 36%
    14:00 +31°C° 0 mm 3 mps 759 mmHg 36%
    15:00 +30°C° 0 mm 4 mps 758 mmHg 36%
    16:00 +30°C° 0 mm 4 mps 758 mmHg 37%
    17:00 +29°C° 0 mm 3 mps 758 mmHg 39%
    18:00 +28°C° 0 mm 3 mps 758 mmHg 42%
    19:00 +27°C° 0 mm 2 mps 759 mmHg 44%
    20:00 +26°C° 0 mm 3 mps 759 mmHg 44%
    21:00 +26°C° 0 mm 3 mps 759 mmHg 45%
    22:00 +25°C° 0 mm 3 mps 760 mmHg 45%
    23:00 +23°C° 0 mm 4 mps 760 mmHg 40%
    Show more